EWG9A EDDL-LEBL

Flight info

Callsign EWG9A
Flight time 1h 48m
Altitude 37000
Route MODRU2T/23L MODRU Z283 LNO DCT RASCA DCT FAMEN DCT AHVEC UN857 DISAK DCT DIRMO DCT VALKU DCT ATSUP DCT MINSO DCT DEGOL DCT PPG DCT ALBER
Aircraft A320/M-SDE3FGHIRWY/LB1

Departure

Time 2026-05-04 12:11
Airport Düsseldorf Airport (EDDL)

Arrival

Time 2026-05-04 13:59
Airport Josep Tarradellas Barcelona-El Prat Airport (LEBL)
Time Latitude Longitude Altitude Speed Heading
2026-05-04 11:38 51.28011 6.76417 131 ft 0 kts 208°
2026-05-04 11:41 51.28012 6.76417 130 ft 0 kts 208°
2026-05-04 11:59 51.28023 6.76427 126 ft 4 kts 206°
2026-05-04 12:00 51.28048 6.76443 126 ft 4 kts 190°
2026-05-04 12:00 51.28072 6.76441 127 ft 3 kts 148°
2026-05-04 12:00 51.28092 6.76420 126 ft 4 kts 144°
2026-05-04 12:00 51.28113 6.76393 125 ft 4 kts 135°
2026-05-04 12:01 51.28129 6.76361 128 ft 3 kts 117°
2026-05-04 12:01 51.28141 6.76324 128 ft 4 kts 114°
2026-05-04 12:02 51.28120 6.76190 125 ft 0 kts 53°
2026-05-04 12:05 51.28121 6.76193 130 ft 1 kts 53°
2026-05-04 12:05 51.28130 6.76212 127 ft 3 kts 53°
2026-05-04 12:05 51.28147 6.76245 128 ft 5 kts 40°
2026-05-04 12:05 51.28187 6.76249 127 ft 8 kts 342°
2026-05-04 12:06 51.28245 6.76263 128 ft 11 kts 40°
2026-05-04 12:06 51.28296 6.76369 124 ft 13 kts 54°
2026-05-04 12:06 51.28360 6.76503 122 ft 18 kts 53°
2026-05-04 12:06 51.28451 6.76697 126 ft 25 kts 52°
2026-05-04 12:07 51.28558 6.76922 129 ft 25 kts 53°
2026-05-04 12:07 51.28668 6.77153 130 ft 27 kts 51°
2026-05-04 12:07 51.28786 6.77399 126 ft 29 kts 53°
2026-05-04 12:07 51.28905 6.77648 129 ft 26 kts 53°
2026-05-04 12:08 51.29009 6.77868 128 ft 25 kts 53°
2026-05-04 12:08 51.29115 6.78091 133 ft 25 kts 53°
2026-05-04 12:08 51.29220 6.78307 141 ft 24 kts 53°
2026-05-04 12:08 51.29310 6.78501 149 ft 12 kts 51°
2026-05-04 12:09 51.29349 6.78559 151 ft 7 kts 30°
2026-05-04 12:09 51.29422 6.78571 152 ft 15 kts 355°
2026-05-04 12:09 51.29520 6.78522 153 ft 0 kts 322°
2026-05-04 12:09 51.29531 6.78509 153 ft 4 kts 322°
2026-05-04 12:10 51.29515 6.78467 152 ft 8 kts 239°
2026-05-04 12:10 51.29436 6.78294 147 ft 47 kts 232°
2026-05-04 12:10 51.29092 6.77573 129 ft 112 kts 232°
2026-05-04 12:10 51.28516 6.76363 133 ft 160 kts 233°
2026-05-04 12:11 51.27837 6.74916 673 ft 162 kts 234°
2026-05-04 12:11 51.27210 6.73562 1325 ft 163 kts 234°
2026-05-04 12:11 51.26580 6.72042 1895 ft 168 kts 238°
2026-05-04 12:11 51.25928 6.70373 2164 ft 189 kts 237°
2026-05-04 12:12 51.25194 6.68484 2487 ft 211 kts 237°
2026-05-04 12:12 51.24381 6.66393 2827 ft 234 kts 237°
2026-05-04 12:12 51.23397 6.64167 3337 ft 252 kts 224°
2026-05-04 12:12 51.22097 6.62231 4148 ft 258 kts 222°
2026-05-04 12:13 51.20768 6.60280 5019 ft 262 kts 222°
2026-05-04 12:14 51.10971 6.45975 10480 ft 296 kts 223°
2026-05-04 12:15 51.09387 6.43678 10657 ft 318 kts 223°
2026-05-04 12:15 51.07720 6.41262 11151 ft 328 kts 222°
2026-05-04 12:15 51.06021 6.38803 11791 ft 332 kts 222°
2026-05-04 12:15 51.04305 6.36323 12472 ft 335 kts 222°
2026-05-04 12:16 51.02575 6.33826 13148 ft 338 kts 222°
2026-05-04 12:16 51.00820 6.31289 13835 ft 342 kts 222°
2026-05-04 12:16 50.99055 6.28736 14444 ft 345 kts 222°
2026-05-04 12:16 50.97275 6.26157 15051 ft 347 kts 222°
2026-05-04 12:17 50.95511 6.23606 15653 ft 349 kts 221°
2026-05-04 12:17 50.93710 6.21006 16252 ft 351 kts 221°
2026-05-04 12:17 50.91892 6.18393 16866 ft 354 kts 221°
2026-05-04 12:17 50.90064 6.15774 17471 ft 356 kts 221°
2026-05-04 12:18 50.88219 6.13134 18075 ft 358 kts 221°
2026-05-04 12:18 50.86360 6.10477 18638 ft 361 kts 221°
2026-05-04 12:18 50.84490 6.07806 19193 ft 363 kts 221°
2026-05-04 12:18 50.82608 6.05117 19769 ft 365 kts 221°
2026-05-04 12:19 50.80722 6.02422 20351 ft 367 kts 221°
2026-05-04 12:19 50.78823 5.99709 20915 ft 368 kts 221°
2026-05-04 12:19 50.76914 5.96988 21469 ft 370 kts 221°
2026-05-04 12:19 50.74995 5.94257 22013 ft 372 kts 221°
2026-05-04 12:20 50.73067 5.91517 22556 ft 374 kts 221°
2026-05-04 12:20 50.71155 5.88801 23073 ft 376 kts 221°
2026-05-04 12:20 50.69182 5.86002 23599 ft 378 kts 220°
2026-05-04 12:20 50.67251 5.83268 24025 ft 379 kts 220°
2026-05-04 12:21 50.65278 5.80477 24460 ft 381 kts 220°
2026-05-04 12:21 50.63299 5.77677 24874 ft 382 kts 220°
2026-05-04 12:21 50.61318 5.74881 25292 ft 384 kts 220°
2026-05-04 12:21 50.59325 5.72069 25702 ft 386 kts 221°
2026-05-04 12:22 50.57493 5.68957 26090 ft 389 kts 229°
2026-05-04 12:22 50.55773 5.65662 26474 ft 391 kts 229°
2026-05-04 12:22 50.54044 5.62355 26847 ft 393 kts 229°
2026-05-04 12:22 50.52303 5.59032 27212 ft 394 kts 229°
2026-05-04 12:23 50.50551 5.55696 27597 ft 396 kts 228°
2026-05-04 12:23 50.48795 5.52356 27970 ft 398 kts 229°
2026-05-04 12:23 50.47043 5.49027 28336 ft 400 kts 228°
2026-05-04 12:23 50.45267 5.45655 28692 ft 402 kts 228°
2026-05-04 12:24 50.43477 5.42266 29054 ft 404 kts 228°
2026-05-04 12:24 50.41677 5.38866 29393 ft 406 kts 228°
2026-05-04 12:24 50.39869 5.35457 29731 ft 408 kts 228°
2026-05-04 12:24 50.38058 5.32042 30186 ft 406 kts 228°
2026-05-04 12:25 50.36258 5.28646 30623 ft 404 kts 228°
2026-05-04 12:25 50.34470 5.25272 31056 ft 402 kts 228°
2026-05-04 12:25 50.32685 5.21913 31529 ft 400 kts 228°
2026-05-04 12:25 50.30903 5.18569 31985 ft 397 kts 228°
2026-05-04 12:26 50.29139 5.15267 32447 ft 395 kts 228°
2026-05-04 12:26 50.27382 5.11977 32909 ft 393 kts 228°
2026-05-04 12:26 50.25650 5.08739 33381 ft 391 kts 228°
2026-05-04 12:26 50.23909 5.05487 33844 ft 389 kts 228°
2026-05-04 12:27 50.22177 5.02261 34244 ft 387 kts 228°
2026-05-04 12:27 50.20448 4.99046 34557 ft 387 kts 228°
2026-05-04 12:27 50.18717 4.95827 34823 ft 388 kts 228°
2026-05-04 12:27 50.16980 4.92602 35070 ft 389 kts 228°
2026-05-04 12:28 50.15238 4.89364 35325 ft 389 kts 228°
2026-05-04 12:28 50.13495 4.86122 35570 ft 390 kts 228°
2026-05-04 12:28 50.11748 4.82875 35808 ft 391 kts 228°
2026-05-04 12:28 50.09991 4.79623 36039 ft 392 kts 228°
2026-05-04 12:29 50.08226 4.76368 36266 ft 393 kts 228°
2026-05-04 12:29 50.06459 4.73115 36482 ft 394 kts 228°
2026-05-04 12:29 50.04711 4.69898 36706 ft 395 kts 228°
2026-05-04 12:29 50.02911 4.66666 36908 ft 395 kts 223°
2026-05-04 12:30 50.00725 4.64077 36996 ft 397 kts 207°
2026-05-04 12:30 49.98122 4.62554 37003 ft 404 kts 197°
2026-05-04 12:30 49.92659 4.60212 37001 ft 409 kts 197°
2026-05-04 12:31 49.87142 4.57873 37002 ft 410 kts 197°
2026-05-04 12:31 49.81677 4.55538 37003 ft 410 kts 197°
2026-05-04 12:32 49.73415 4.52007 37008 ft 411 kts 197°
2026-05-04 12:33 49.67903 4.49658 37014 ft 411 kts 197°
2026-05-04 12:33 49.62375 4.47315 37016 ft 412 kts 197°
2026-05-04 12:34 49.56848 4.44986 37018 ft 412 kts 197°
2026-05-04 12:34 49.51365 4.42670 37014 ft 412 kts 197°
2026-05-04 12:35 49.45832 4.40337 37015 ft 412 kts 197°
2026-05-04 12:35 49.40304 4.38023 37005 ft 412 kts 197°
2026-05-04 12:36 49.34779 4.35712 37001 ft 412 kts 197°
2026-05-04 12:36 49.29252 4.33408 36996 ft 412 kts 197°
2026-05-04 12:37 49.23761 4.31116 36992 ft 412 kts 197°
2026-05-04 12:37 49.18226 4.28804 36995 ft 411 kts 196°
2026-05-04 12:38 49.12722 4.26517 36993 ft 411 kts 197°
2026-05-04 12:38 49.07191 4.24219 36990 ft 410 kts 196°
2026-05-04 12:39 49.01688 4.21944 36996 ft 410 kts 196°
2026-05-04 12:39 48.96214 4.19691 37008 ft 409 kts 196°
2026-05-04 12:40 48.90703 4.17417 37018 ft 409 kts 196°
2026-05-04 12:40 48.85204 4.15156 37019 ft 410 kts 196°
2026-05-04 12:41 48.79700 4.12909 37023 ft 410 kts 196°
2026-05-04 12:41 48.74187 4.10652 37020 ft 410 kts 196°
2026-05-04 12:42 48.68678 4.08405 37021 ft 410 kts 196°
2026-05-04 12:42 48.63202 4.06177 37016 ft 410 kts 196°
2026-05-04 12:43 48.57702 4.03948 37005 ft 409 kts 196°
2026-05-04 12:43 48.52192 4.01716 37009 ft 409 kts 196°
2026-05-04 12:44 48.46693 3.99502 37019 ft 409 kts 196°
2026-05-04 12:44 48.41185 3.97300 37023 ft 409 kts 196°
2026-05-04 12:45 48.35684 3.95087 37017 ft 409 kts 196°
2026-05-04 12:45 48.30224 3.92884 37019 ft 409 kts 196°
2026-05-04 12:46 48.24728 3.90675 37016 ft 409 kts 196°
2026-05-04 12:46 48.19226 3.88475 37011 ft 409 kts 196°
2026-05-04 12:47 48.13726 3.86288 37004 ft 409 kts 196°
2026-05-04 12:47 48.08223 3.84104 36998 ft 409 kts 196°
2026-05-04 12:48 48.02726 3.81919 36996 ft 409 kts 196°
2026-05-04 12:48 47.97228 3.79729 36986 ft 409 kts 196°
2026-05-04 12:49 47.91762 3.77573 36984 ft 409 kts 195°
2026-05-04 12:49 47.86260 3.75409 36975 ft 409 kts 196°
2026-05-04 12:50 47.80756 3.73246 36981 ft 409 kts 195°
2026-05-04 12:50 47.75245 3.71082 36976 ft 409 kts 195°
2026-05-04 12:51 47.69739 3.68933 36979 ft 409 kts 195°
2026-05-04 12:51 47.64235 3.66775 36972 ft 409 kts 196°
2026-05-04 12:52 47.58768 3.64634 36972 ft 409 kts 196°
2026-05-04 12:52 47.53270 3.62493 36971 ft 408 kts 195°
2026-05-04 12:53 47.47771 3.60361 36971 ft 408 kts 195°
2026-05-04 12:53 47.42266 3.58227 36971 ft 409 kts 196°
2026-05-04 12:54 47.36767 3.56103 36972 ft 409 kts 195°
2026-05-04 12:54 47.31254 3.53982 36973 ft 409 kts 195°
2026-05-04 12:55 47.25786 3.51875 36974 ft 409 kts 196°
2026-05-04 12:55 47.20276 3.49750 36977 ft 409 kts 196°
2026-05-04 12:56 47.14766 3.47635 36984 ft 409 kts 196°
2026-05-04 12:56 47.09249 3.45525 36986 ft 409 kts 196°
2026-05-04 12:57 47.04669 3.43780 36981 ft 409 kts 196°
2026-05-04 12:57 46.98259 3.41347 36987 ft 409 kts 196°
2026-05-04 12:58 46.92754 3.39257 36991 ft 409 kts 196°
2026-05-04 12:58 46.88159 3.37518 36980 ft 409 kts 196°
2026-05-04 12:59 46.82662 3.35434 36980 ft 408 kts 196°
2026-05-04 12:59 46.77159 3.33348 36975 ft 408 kts 196°
2026-05-04 13:00 46.71683 3.31279 36977 ft 408 kts 196°
2026-05-04 13:00 46.66181 3.29209 36973 ft 408 kts 196°
2026-05-04 13:01 46.60674 3.27143 36967 ft 409 kts 196°
2026-05-04 13:01 46.55159 3.25082 36973 ft 408 kts 196°
2026-05-04 13:02 46.49649 3.23023 36977 ft 408 kts 196°
2026-05-04 13:02 46.44147 3.20966 36981 ft 408 kts 196°
2026-05-04 13:03 46.38681 3.18935 36983 ft 408 kts 196°
2026-05-04 13:03 46.33170 3.16893 36976 ft 408 kts 196°
2026-05-04 13:04 46.27670 3.14854 36981 ft 408 kts 196°
2026-05-04 13:04 46.22171 3.12818 36992 ft 407 kts 196°
2026-05-04 13:05 46.16718 3.10809 36984 ft 407 kts 196°
2026-05-04 13:05 46.11232 3.08781 36983 ft 407 kts 197°
2026-05-04 13:06 46.05731 3.06748 36977 ft 407 kts 196°
2026-05-04 13:06 46.00228 3.04736 36985 ft 408 kts 196°
2026-05-04 13:07 45.94730 3.02726 36986 ft 408 kts 196°
2026-05-04 13:07 45.89260 3.00724 36989 ft 408 kts 196°
2026-05-04 13:08 45.83764 2.98713 36992 ft 407 kts 197°
2026-05-04 13:08 45.78258 2.96706 36989 ft 407 kts 197°
2026-05-04 13:09 45.72687 2.95219 36987 ft 411 kts 185°
2026-05-04 13:09 45.66966 2.95066 36987 ft 411 kts 184°
2026-05-04 13:10 45.61277 2.94927 36988 ft 411 kts 185°
2026-05-04 13:10 45.55558 2.94782 36987 ft 410 kts 185°
2026-05-04 13:11 45.49852 2.94630 36986 ft 410 kts 185°
2026-05-04 13:11 45.44140 2.94479 36994 ft 411 kts 185°
2026-05-04 13:12 45.38485 2.94324 36986 ft 408 kts 185°
2026-05-04 13:12 45.32798 2.94167 36989 ft 408 kts 185°
2026-05-04 13:13 45.27116 2.94015 36988 ft 408 kts 185°
2026-05-04 13:13 45.21430 2.93870 36995 ft 408 kts 185°
2026-05-04 13:14 45.15788 2.93717 36994 ft 408 kts 185°
2026-05-04 13:14 45.10117 2.93561 37000 ft 408 kts 185°
2026-05-04 13:15 45.04470 2.93416 36998 ft 408 kts 185°
2026-05-04 13:15 44.98796 2.93273 36999 ft 408 kts 185°
2026-05-04 13:16 44.93125 2.93123 37004 ft 407 kts 185°
2026-05-04 13:16 44.87478 2.92976 36998 ft 407 kts 185°
2026-05-04 13:17 44.81815 2.92786 36994 ft 406 kts 187°
2026-05-04 13:17 44.76168 2.92371 37001 ft 406 kts 188°
2026-05-04 13:18 44.70535 2.91893 37000 ft 406 kts 188°
2026-05-04 13:18 44.64893 2.91454 37001 ft 406 kts 187°
2026-05-04 13:19 44.59256 2.91048 36999 ft 405 kts 187°
2026-05-04 13:19 44.53620 2.90647 36994 ft 405 kts 187°
2026-05-04 13:20 44.48039 2.90243 36990 ft 404 kts 187°
2026-05-04 13:20 44.42422 2.89826 36995 ft 404 kts 187°
2026-05-04 13:21 44.36813 2.89416 36989 ft 403 kts 187°
2026-05-04 13:21 44.31210 2.89018 36985 ft 403 kts 187°
2026-05-04 13:22 44.25609 2.88617 36987 ft 403 kts 187°
2026-05-04 13:22 44.19999 2.88213 36993 ft 404 kts 187°
2026-05-04 13:23 44.14389 2.87809 36990 ft 403 kts 187°
2026-05-04 13:23 44.08826 2.87413 36980 ft 402 kts 187°
2026-05-04 13:24 44.03242 2.87015 36975 ft 402 kts 187°
2026-05-04 13:24 43.97658 2.86618 36973 ft 402 kts 188°
2026-05-04 13:25 43.89274 2.86018 36980 ft 402 kts 188°
2026-05-04 13:25 43.83678 2.85622 36984 ft 402 kts 188°
2026-05-04 13:26 43.78093 2.85223 36982 ft 402 kts 187°
2026-05-04 13:26 43.72480 2.85121 36980 ft 404 kts 184°
2026-05-04 13:27 43.66885 2.85303 36978 ft 405 kts 184°
2026-05-04 13:27 43.61254 2.85482 36976 ft 404 kts 184°
2026-05-04 13:28 43.55631 2.85580 36971 ft 403 kts 185°
2026-05-04 13:28 43.50027 2.85644 36963 ft 403 kts 185°
2026-05-04 13:29 43.44417 2.85712 36962 ft 403 kts 185°
2026-05-04 13:29 43.41600 2.85748 36834 ft 409 kts 185°
2026-05-04 13:29 43.38730 2.85784 36565 ft 415 kts 185°
2026-05-04 13:30 43.35838 2.85826 36303 ft 415 kts 185°
2026-05-04 13:30 43.32994 2.85871 36046 ft 413 kts 185°
2026-05-04 13:30 43.30123 2.85919 35790 ft 411 kts 185°
2026-05-04 13:30 43.27272 2.85967 35536 ft 409 kts 185°
2026-05-04 13:31 43.24434 2.86012 35282 ft 407 kts 185°
2026-05-04 13:31 43.21613 2.86049 35034 ft 405 kts 185°
2026-05-04 13:31 43.18807 2.86084 34786 ft 402 kts 185°
2026-05-04 13:31 43.16026 2.86124 34445 ft 397 kts 185°
2026-05-04 13:32 43.13275 2.86167 34001 ft 393 kts 185°
2026-05-04 13:32 43.10541 2.86208 33510 ft 390 kts 185°
2026-05-04 13:32 43.07842 2.86248 33082 ft 385 kts 185°
2026-05-04 13:32 43.05181 2.86290 32624 ft 381 kts 185°
2026-05-04 13:33 43.02543 2.86330 32199 ft 377 kts 185°
2026-05-04 13:33 42.99929 2.86367 31764 ft 374 kts 185°
2026-05-04 13:33 42.97378 2.86406 31339 ft 371 kts 185°
2026-05-04 13:33 42.94814 2.86445 30911 ft 368 kts 185°
2026-05-04 13:34 42.92260 2.86480 30477 ft 365 kts 185°
2026-05-04 13:34 42.89733 2.86513 30066 ft 363 kts 185°
2026-05-04 13:34 42.87219 2.86547 29615 ft 360 kts 185°
2026-05-04 13:34 42.84723 2.86582 29200 ft 357 kts 185°
2026-05-04 13:35 42.82246 2.86616 28804 ft 354 kts 185°
2026-05-04 13:35 42.77351 2.86685 28018 ft 349 kts 185°
2026-05-04 13:35 42.74924 2.86694 27593 ft 346 kts 188°
2026-05-04 13:36 42.72569 2.86436 27193 ft 344 kts 189°
2026-05-04 13:36 42.70179 2.86153 26791 ft 342 kts 189°
2026-05-04 13:36 42.67816 2.85872 26398 ft 340 kts 189°
2026-05-04 13:36 42.65465 2.85591 26006 ft 338 kts 189°
2026-05-04 13:37 42.63124 2.85312 25610 ft 337 kts 189°
2026-05-04 13:37 42.60796 2.85037 25220 ft 335 kts 189°
2026-05-04 13:37 42.58480 2.84766 24823 ft 333 kts 189°
2026-05-04 13:37 42.56952 2.84590 24558 ft 333 kts 189°
2026-05-04 13:38 42.53874 2.84232 24023 ft 331 kts 189°
2026-05-04 13:38 42.51585 2.83966 23604 ft 330 kts 189°
2026-05-04 13:38 42.49301 2.83702 23145 ft 329 kts 189°
2026-05-04 13:38 42.47032 2.83439 22710 ft 326 kts 189°
2026-05-04 13:39 42.44780 2.83132 22284 ft 322 kts 194°
2026-05-04 13:39 42.42619 2.82602 21874 ft 319 kts 194°
2026-05-04 13:39 42.40441 2.82066 21445 ft 317 kts 194°
2026-05-04 13:39 42.38271 2.81532 21022 ft 316 kts 194°
2026-05-04 13:40 42.36114 2.80997 20604 ft 315 kts 194°
2026-05-04 13:40 42.33962 2.80462 20189 ft 313 kts 194°
2026-05-04 13:40 42.31820 2.79931 19765 ft 313 kts 194°
2026-05-04 13:40 42.29680 2.79403 19344 ft 313 kts 194°
2026-05-04 13:41 42.27543 2.78880 18929 ft 312 kts 193°
2026-05-04 13:41 42.25398 2.78358 18507 ft 313 kts 193°
2026-05-04 13:41 42.23257 2.77836 18072 ft 313 kts 193°
2026-05-04 13:42 42.18977 2.76789 17202 ft 311 kts 193°
2026-05-04 13:42 42.16855 2.76269 16791 ft 310 kts 193°
2026-05-04 13:42 42.14766 2.75756 16382 ft 309 kts 193°
2026-05-04 13:42 42.12653 2.75239 15963 ft 308 kts 193°
2026-05-04 13:43 42.10555 2.74724 15552 ft 307 kts 193°
2026-05-04 13:43 42.08457 2.74211 15137 ft 306 kts 192°
2026-05-04 13:43 42.06360 2.73699 14724 ft 306 kts 192°
2026-05-04 13:43 42.04272 2.73192 14313 ft 305 kts 192°
2026-05-04 13:44 42.02184 2.72688 13897 ft 305 kts 192°
2026-05-04 13:44 42.00095 2.72181 13455 ft 305 kts 192°
2026-05-04 13:44 41.98010 2.71674 13039 ft 303 kts 192°
2026-05-04 13:44 41.95943 2.71171 12633 ft 301 kts 192°
2026-05-04 13:45 41.93882 2.70669 12221 ft 300 kts 192°
2026-05-04 13:45 41.91868 2.70178 11817 ft 288 kts 192°
2026-05-04 13:45 41.89914 2.69705 11438 ft 285 kts 191°
2026-05-04 13:45 41.87970 2.69235 11057 ft 284 kts 192°
2026-05-04 13:46 41.86019 2.68764 10668 ft 284 kts 191°
2026-05-04 13:46 41.84073 2.68293 10284 ft 284 kts 191°
2026-05-04 13:46 41.82135 2.67821 10030 ft 279 kts 191°
2026-05-04 13:46 41.80241 2.67363 9847 ft 272 kts 191°
2026-05-04 13:47 41.78413 2.66923 9707 ft 271 kts 191°
2026-05-04 13:47 41.76559 2.66452 9565 ft 271 kts 192°
2026-05-04 13:47 41.74715 2.65953 9429 ft 270 kts 192°
2026-05-04 13:47 41.72871 2.65446 9302 ft 270 kts 192°
2026-05-04 13:48 41.71032 2.64939 9162 ft 269 kts 192°
2026-05-04 13:48 41.69192 2.64435 9040 ft 270 kts 192°
2026-05-04 13:48 41.67349 2.63932 8901 ft 270 kts 193°
2026-05-04 13:48 41.65509 2.63432 8771 ft 269 kts 192°
2026-05-04 13:49 41.63673 2.62937 8642 ft 269 kts 192°
2026-05-04 13:49 41.61835 2.62441 8512 ft 269 kts 192°
2026-05-04 13:49 41.60001 2.61946 8385 ft 268 kts 192°
2026-05-04 13:49 41.58173 2.61452 8259 ft 268 kts 192°
2026-05-04 13:50 41.56350 2.60962 8131 ft 267 kts 192°
2026-05-04 13:50 41.54546 2.60476 8004 ft 260 kts 192°
2026-05-04 13:50 41.52799 2.60008 7878 ft 253 kts 192°
2026-05-04 13:50 41.51096 2.59553 7755 ft 247 kts 192°
2026-05-04 13:51 41.49429 2.59106 7627 ft 241 kts 192°
2026-05-04 13:51 41.47868 2.58524 7498 ft 233 kts 207°
2026-05-04 13:51 41.46605 2.57207 7384 ft 232 kts 230°
2026-05-04 13:51 41.45789 2.55342 7272 ft 234 kts 243°
2026-05-04 13:52 41.44483 2.51376 6827 ft 233 kts 244°
2026-05-04 13:52 41.43811 2.49376 6321 ft 240 kts 244°
2026-05-04 13:52 41.43144 2.47398 5949 ft 232 kts 244°
2026-05-04 13:53 41.42494 2.45473 5638 ft 223 kts 244°
2026-05-04 13:53 41.41871 2.43627 5344 ft 215 kts 245°
2026-05-04 13:53 41.41259 2.41817 5071 ft 214 kts 244°
2026-05-04 13:54 41.40042 2.38219 4502 ft 212 kts 245°
2026-05-04 13:54 41.39440 2.36440 4216 ft 210 kts 245°
2026-05-04 13:54 41.38250 2.32929 3671 ft 207 kts 244°
2026-05-04 13:55 41.37658 2.31182 3404 ft 206 kts 244°
2026-05-04 13:55 41.36490 2.27743 2848 ft 198 kts 244°
2026-05-04 13:55 41.36123 2.26662 2728 ft 190 kts 244°
2026-05-04 13:56 41.35589 2.25090 2449 ft 182 kts 243°
2026-05-04 13:56 41.34897 2.23059 2130 ft 196 kts 243°
2026-05-04 13:56 41.33830 2.19923 1624 ft 174 kts 243°
2026-05-04 13:57 41.33500 2.18954 1468 ft 166 kts 244°
2026-05-04 13:57 41.33040 2.17604 1249 ft 155 kts 243°
2026-05-04 13:58 41.31824 2.14046 634 ft 134 kts 246°
2026-05-04 13:58 41.31061 2.11787 323 ft 134 kts 246°
2026-05-04 13:58 41.30663 2.10643 124 ft 134 kts 244°
2026-05-04 13:59 41.30286 2.09546 19 ft 124 kts 245°
2026-05-04 13:59 41.29996 2.08689 20 ft 77 kts 245°
2026-05-04 13:59 41.29743 2.07825 18 ft 41 kts 263°
2026-05-04 14:00 41.29782 2.07627 20 ft 6 kts 339°
2026-05-04 14:00 41.29840 2.07595 22 ft 12 kts 335°
2026-05-04 14:00 41.29941 2.07535 21 ft 19 kts 338°
2026-05-04 14:01 41.30014 2.07616 21 ft 12 kts 65°
2026-05-04 14:01 41.30086 2.07618 21 ft 13 kts 334°
2026-05-04 14:01 41.30167 2.07625 22 ft 0 kts 45°